TimeHST,TemperatureF,Dew PointF,Humidity,Sea Level PressureIn,VisibilityMPH,Wind Direction,Wind SpeedMPH,Gust SpeedMPH,PrecipitationIn,Events,Conditions,WindDirDegrees,DateUTC
12:54 AM,72.0,68.0,87,29.94,10.0,East,5.8,-,N/A,,Partly Cloudy,90,2014-02-21 10:54:00
1:09 AM,71.6,69.8,94,29.92,10.0,East,6.9,-,N/A,,Mostly Cloudy,100,2014-02-21 11:09:00
1:38 AM,71.6,68.0,88,29.91,10.0,ESE,5.8,-,N/A,,Scattered Clouds,110,2014-02-21 11:38:00
1:54 AM,71.1,66.9,87,29.92,10.0,SE,5.8,-,N/A,,Clear,130,2014-02-21 11:54:00
2:54 AM,69.1,66.9,93,29.92,10.0,South,3.5,-,N/A,,Clear,190,2014-02-21 12:54:00
3:54 AM,69.1,66.0,90,29.91,10.0,SE,5.8,-,N/A,,Clear,130,2014-02-21 13:54:00
4:54 AM,66.9,64.9,93,29.92,10.0,SSE,4.6,-,N/A,,Scattered Clouds,150,2014-02-21 14:54:00
5:54 AM,66.0,64.0,93,29.93,10.0,SE,5.8,-,N/A,,Clear,140,2014-02-21 15:54:00
6:54 AM,66.0,63.0,90,29.94,10.0,SSE,5.8,-,N/A,,Clear,150,2014-02-21 16:54:00
7:54 AM,69.1,66.0,90,29.96,10.0,Calm,Calm,-,N/A,,Partly Cloudy,0,2014-02-21 17:54:00
8:54 AM,75.9,66.0,71,29.97,10.0,Calm,Calm,-,N/A,,Partly Cloudy,0,2014-02-21 18:54:00
9:54 AM,80.1,68.0,67,29.98,10.0,NNW,4.6,-,N/A,,Partly Cloudy,330,2014-02-21 19:54:00
10:54 AM,82.0,66.0,58,29.98,10.0,North,4.6,-,N/A,,Partly Cloudy,350,2014-02-21 20:54:00
11:54 AM,82.0,68.0,62,29.95,10.0,North,6.9,-,N/A,,Scattered Clouds,350,2014-02-21 21:54:00
12:54 PM,82.0,69.1,65,29.93,10.0,North,6.9,-,N/A,,Scattered Clouds,350,2014-02-21 22:54:00
1:54 PM,82.0,66.9,60,29.89,10.0,North,9.2,-,N/A,,Scattered Clouds,10,2014-02-21 23:54:00
2:54 PM,82.0,66.9,60,29.88,10.0,NNE,6.9,-,N/A,,Scattered Clouds,20,2014-02-22 00:54:00
3:54 PM,81.0,64.9,58,29.87,10.0,Variable,4.6,-,N/A,,Scattered Clouds,0,2014-02-22 01:54:00
4:54 PM,80.1,64.9,60,29.88,10.0,Variable,3.5,-,N/A,,Scattered Clouds,0,2014-02-22 02:54:00
5:54 PM,78.1,66.0,66,29.90,10.0,Calm,Calm,-,N/A,,Scattered Clouds,0,2014-02-22 03:54:00
6:54 PM,77.0,66.9,71,29.92,10.0,NW,4.6,-,N/A,,Clear,320,2014-02-22 04:54:00
7:54 PM,75.9,70.0,82,29.94,10.0,Calm,Calm,-,N/A,,Mostly Cloudy,0,2014-02-22 05:54:00
8:54 PM,75.0,70.0,84,29.96,10.0,Calm,Calm,-,N/A,,Scattered Clouds,0,2014-02-22 06:54:00
9:54 PM,73.0,69.1,87,29.97,10.0,Calm,Calm,-,N/A,,Clear,0,2014-02-22 07:54:00
10:54 PM,73.0,69.1,87,29.98,10.0,East,4.6,-,N/A,,Mostly Cloudy,90,2014-02-22 08:54:00
11:54 PM,71.1,66.9,87,29.99,10.0,East,3.5,-,N/A,,Clear,90,2014-02-22 09:54:00